Minneapolis Flying Cloud, MN

3:49 AM CDT on October 21, 2019 (GMT -0500)
Flying Cloud

Weather History for KFCM - August, 2019

Change the Weather History Date:

Saturday, August 17, 2019

  Actual Average Record
Temperature  
Mean Temperature 72 °F -  
Max Temperature 82 °F 78 °F 93 °F (2003)
Min Temperature 62 °F 58 °F 50 °F (2002)
Cooling Degree Days 7    
Growing Degree Days 22 (Base 50)    
Moisture  
Dew Point 60 °F    
Average Humidity 68    
Maximum Humidity 90    
Minimum Humidity 41    
Precipitation  
Precipitation 0.00 in - - ()
Sea Level Pressure  
Sea Level Pressure 29.79 in    
Wind  
Wind Speed 6 mph (SSE)    
Max Wind Speed 15 mph    
Max Gust Speed 20 mph    
Visibility 10 miles    
Events Rain    
Averages and records for this station are not official NWS values.
T = Trace of Precipitation, MM = Missing Value Source: NWS Daily Summary

Daily Weather History Graph

Daily Weather History Graph

Search for Another Location

Airport or City:

Astronomy

Aug. 17, 2019 Rise Set
Actual Time 6:18 AM CDT 8:16 PM CDT
Civil Twilight 5:46 AM CDT 8:48 PM CDT
Nautical Twilight 5:07 AM CDT 9:27 PM CDT
Astronomical Twilight 4:24 AM CDT 10:09 PM CDT
Moon 9:40 PM CDT (8/17) 8:10 AM CDT (8/17)
Length of Visible Light 15h 02m
Length of Day
13h 58m
Waning Gibbous, 96% of the Moon is Illuminated
Aug 17
Waning Gibbous
Aug 23
Last Quarter
Aug 30
New
Sep 5
First Quarter
Sep 13
Full

Hourly Weather History & Observations

Time (CDT) Temp. Heat Index Dew Point Humidity Pressure Visibility Wind Dir Wind Speed Gust Speed Precip Events Conditions
12:53 AM 66.0 °F - 61.0 °F 84% 29.85 in 10.0 mi Calm Calm - N/A   Clear
1:53 AM 64.9 °F - 60.1 °F 84% 29.86 in 10.0 mi SW 6.9 mph - N/A   Clear
2:53 AM 64.9 °F - 60.1 °F 84% 29.83 in 10.0 mi WSW 3.5 mph - N/A   Clear
3:53 AM 64.0 °F - 59.0 °F 84% 29.79 in 10.0 mi Calm Calm - N/A   Clear
4:53 AM 62.1 °F - 59.0 °F 90% 29.75 in 10.0 mi South 3.5 mph - N/A   Clear
5:53 AM 63.0 °F - 59.0 °F 87% 29.85 in 10.0 mi South 6.9 mph - N/A   Mostly Cloudy
6:53 AM 63.0 °F - 57.9 °F 84% 29.86 in 10.0 mi SSW 4.6 mph - N/A   Clear
7:53 AM 66.0 °F - 59.0 °F 78% 29.84 in 10.0 mi South 4.6 mph - N/A   Clear
8:53 AM 69.1 °F - 60.1 °F 73% 29.85 in 10.0 mi SSW 4.6 mph - N/A   Clear
9:53 AM 71.1 °F - 61.0 °F 70% 29.84 in 10.0 mi SW 5.8 mph - N/A   Clear
10:53 AM 73.9 °F - 61.0 °F 64% 29.84 in 10.0 mi South 10.4 mph - N/A   Clear
11:53 AM 77.0 °F - 59.0 °F 54% 29.83 in 10.0 mi South 12.7 mph - N/A   Clear
12:53 PM 80.1 °F 80.7 °F 59.0 °F 48% 29.80 in 10.0 mi ESE 5.8 mph - N/A   Clear
1:53 PM 81.0 °F 81.6 °F 60.1 °F 49% 29.80 in 10.0 mi SSE 15.0 mph 19.6 mph N/A   Clear
2:53 PM 82.0 °F 82.1 °F 59.0 °F 45% 29.78 in 10.0 mi SSE 10.4 mph 18.4 mph N/A   Clear
3:53 PM 82.0 °F 82.1 °F 59.0 °F 45% 29.77 in 10.0 mi South 11.5 mph - N/A   Clear
4:53 PM 82.0 °F 81.6 °F 55.9 °F 41% 29.76 in 10.0 mi SSE 11.5 mph - N/A   Clear
5:53 PM 81.0 °F 81.1 °F 57.9 °F 45% 29.74 in 10.0 mi SSE 12.7 mph - N/A   Clear
6:53 PM 79.0 °F - 60.1 °F 52% 29.70 in 10.0 mi SSE 9.2 mph - N/A   Clear
7:53 PM 75.9 °F - 62.1 °F 62% 29.71 in 10.0 mi SSE 10.4 mph - N/A   Clear
8:53 PM 73.0 °F - 63.0 °F 71% 29.71 in 10.0 mi SE 8.1 mph - N/A   Clear
9:53 PM 73.0 °F - 64.0 °F 73% 29.72 in 10.0 mi SE 10.4 mph - N/A   Clear
10:53 PM 73.0 °F - 64.9 °F 76% 29.70 in 10.0 mi ESE 8.1 mph - N/A   Scattered Clouds
11:53 PM 73.0 °F - 66.0 °F 79% 29.69 in 10.0 mi East 4.6 mph - 0.00 in Rain Light Rain